Home > Weather > Sunnyvale > Past weeks

Flag for USA Past Weather in Sunnyvale, California, USA — Yesterday and Last 2 Weeks

Now
65 °F

Sunny.


Feels Like: 65 °F
Forecast: 54 / 82 °F
Wind: 5 mph from Northwest

Location: Moffett Field

Current Time: May 27, 2016 at 9:18:36 PM

Latest Report: May 27, 2016 at 8:56 PM


Visibility: 10 mi

Pressure: 29.85 "Hg

Humidity: 70%

Dew Point: 55 °F

Location of SunnyvaleLocation

Past Weather in Sunnyvale — Graph

°F

Sunnyvale Temperature Yesterday

Maximum temperature yesterday: 74 °F (at 12:56 PM)
Minimum temperature yesterday: 53 °F (at 5:56 AM)
Average temperature yesterday: 63 °F

High & Low Weather Summary for the Past Weeks

 TemperatureHumidityPressure
High89 °F (May 17, 2:56 PM)86% (May 27, 5:56 AM)30.16 "Hg (May 27, 5:56 AM)
Low48 °F (May 22, 5:56 AM)20% (May 17, 4:56 PM)29.82 "Hg (May 20, 2:56 AM)
Average62 °F63%29.99 "Hg
* Reported May 12 7:56 PM — May 27 7:56 PM, Sunnyvale, Weather by CustomWeather, © 2016

Note: Actual official high and low records may vary slightly from our data, if they occured in-between our weather recording intervals... More about our weather records

Advertising

Sunnyvale Weather History for the Previous 24 Hours

Scroll right to see more
 ConditionsComfort  
Time TempWeatherWind HumidityBarometerVisibility
7:56 PM
Fri, May 27
68 °FSunny.9 mph61%29.85 "Hg10 mi
6:56 PM71 °FSunny.14 mph55%29.84 "Hg10 mi
5:56 PM74 °FSunny.16 mph52%29.85 "Hg10 mi
4:56 PM75 °FSunny.12 mph50%29.86 "Hg10 mi
3:56 PM75 °FSunny.14 mph47%29.89 "Hg10 mi
2:56 PM75 °FSunny.17 mph48%29.90 "Hg10 mi
1:56 PM75 °FSunny.14 mph47%29.92 "Hg10 mi
12:56 PM74 °FSunny.10 mph45%29.94 "Hg10 mi
11:56 AM72 °FSunny.8 mph52%29.95 "Hg10 mi
10:56 AM68 °FSunny.5 mph55%29.96 "Hg10 mi
9:56 AM64 °FSunny.No wind61%29.97 "Hg10 mi
8:56 AM61 °FSunny.3 mph67%29.98 "Hg10 mi
7:56 AM57 °FSunny.5 mph78%29.98 "Hg10 mi
6:56 AM54 °FSunny.7 mph83%29.98 "Hg10 mi
5:56 AM52 °FClear.6 mph86%29.98 "Hg10 mi
4:56 AM54 °FClear.3 mph74%29.98 "Hg10 mi
3:56 AM55 °FClear.No wind77%29.98 "Hg10 mi
2:56 AM55 °FClear.No wind80%29.99 "Hg10 mi
1:56 AM56 °FClear.No wind77%30.00 "Hg10 mi
12:56 AM56 °FClear.No wind77%30.02 "Hg10 mi
11:56 PM
Thu, May 26
57 °FClear.No wind74%30.02 "Hg10 mi
10:56 PM57 °FClear.6 mph74%30.03 "Hg10 mi
9:56 PM59 °FClear.10 mph64%30.03 "Hg10 mi
Weather by CustomWeather, © 2016

See weather overviewHow to use our weather pages